User: anonymous   Login
Location: Asheville, NC
(35.6000°N, 82.5500°W)
Time: 17:18:18
(UTC-05:00)
Language:

Gurwin Techsat 1B - Orbit

View from above orbital plane
View from above orbital plane
View from above satellite
View from above satellite

Ground track
Ground track

The orbit data is extracted from the following two-line orbital elements,

1 25397U 98043D   18020.79041582 -.00000004 +00000-0 +17171-4 0  9993
2 25397 098.6356 323.7882 0002401 087.8649 272.2805 14.23638234014532
Epoch (UTC): 20 January 2018 18:58:11
Eccentricity: 0.0002401
inclination: 98.6356°
perigee height: 811 km
apogee height: 815 km
right ascension of ascending node: 323.7882°
argument of perigee: 87.8649°
revolutions per day: 14.23638234
mean anomaly at epoch: 272.2805°
orbit number at epoch: 1453

The dashed part of the orbit path shows where the satellite is in the earth's shadow,  

DLR